Showing default

KANOPUS-V 6, 43877

Orbit data source: Space-Track

KANOPUS-V 6, 43877 is a payload satellite owned by VNIIEM (CIS) in SSO that was launched on Thu, 27 Dec 2018 UTC via a SOYUZ-2-1A launch vehicle from the Vostochny Cosmodrome (VOSTO). Payload-class satellites include a variety of spacecraft equipped with specific instruments for various scientific and technological missions. These include communications satellites like Starlink; space stations such as the ISS; scientific satellites like the Hubble; Earth observation satellites from companies like Planet Labs, Umbra, and HawkEye 360; GPS; miniature CubeSats for education and research; and military/defense satellites.

Loading next visibility...
Identifier
43877, 2018-111B
Orbit
SSO
Last TLE update
10 hours ago
Origin
Manufacturer
VNIIEM
Mission
Operational Civil Imaging
Bus & Motor
KANOPUS, Unknown motor
Mass
473 kg wet, 473 kg dry
Launch date (UTC)
2018-12-27 (6 years ago)
Launch vehicle
SOYUZ-2-1A
Launch site
Vostochny Cosmodrome (VOSTO)
Object type
Payload
Rocket body
Debris
Shape & HBR
Box + 2 Pan, 6 m
Radar Cross Section
1.665 m², Large (>1 m²)

Expand to show TLE details & history

TLE from 10 hours ago
0 KANOPUS-V 6
1 43877U 18111B   25128.82621001  .00005838  00000-0  19265-3 0  9999
2 43877  97.3835  40.4909 0001746  87.7834 272.3608 15.31804705353471
Epoch: 2025-05-08T19:49Z
Definitive object data (Epoch: 2025-05-08T19:49:44.544Z)
Latitude
Longitude
-123.83584°
Altitude
473.486 km
Speed
7.629 km/s
True Right ascension
02h 41m 57s
True Declination
0° 00' 00"
Sunlit
Object was in daylight at TLE epoch
Visualization TLE readout
Latitude
19.51605°
Longitude
59.20158°
Altitude
472.721 km
Speed
7.632 km/s
Apparent Right ascension
17h 02m 12s
Apparent Declination
-42° 17' 01"
Sunlit
Object is in full shadow
Visualization observer readout
Local Sidereal Time
14:04:44
Azimuth
148.835° SSE
Elevation
-1.494°
Doppler factor
1
Orbital elements
Apogee altitude
468.572 km
Perigee altitude
466.182 km
Semi-major axis
6,845.514 km
Eccentricity
0.0001746
Inclination
97.3835°
RAAN
40.4909°
Arg. of periapsis
87.7834°
True anomaly
272.34081°
Mean anomaly
272.3608°
Eccentric anomaly
272.3508°
Mean motion
3.83208 °/min
BSTAR
0.00019265
Orbital period
93.94 mins
Loading maneuver chart data...
Loading SW <> Apogee altitude chart data...
Loading historical data...
Loading historical data...
Loading historical data...
Loading historical data...
Loading historical data...
Loading historical data...
Loading historical data...

KANOPUS-V 6 Visibility forecast

Observer location: undefined°, undefined°

Span
Click to sort rows by Start time (UTC) header in descending order
Start Az.
Max El. time (UTC)
Max El. Az.
Max El.
End time (UTC)
End Az.
5 mins2025-05-09 07:21:59.630Z349.461° N2025-05-09 07:23:59.630Z303.556° NW31.409°2025-05-09 07:26:59.630Z220.966° SW
5 mins2025-05-09 17:54:59.630Z150.422° SSE2025-05-09 17:56:59.630Z104.086° ESE39.233°2025-05-09 17:59:59.630Z358.977° N
|